Location: La Trinit�
(48.1620°N, 3.4512°W)
Time: 16:45:27
(UTC+00:00)

ARIANE 5 R/B - Pass Details

Date: 08 May 2021
Orbit: 620 x 656 km, 98.1° (Epoch: 13 June)

Event Time Altitude Azimuth Distance (km) Brightness Sun altitude
Exits shadow 21:20:41 22° 156° (SSE) 1,350 3.7 -14.4°
Maximum altitude 21:23:23 75° 75° (ENE) 648 2.5 -14.7°
Drops below altitude 10° 21:27:43 10° 349° (N) 1,999 6.1 -15.1°
Sets 21:29:55 0° 348° (NNW) 2,911 7.2 -15.4°
